TimeMDT,TemperatureF,Dew PointF,Humidity,Sea Level PressureIn,VisibilityMPH,Wind Direction,Wind SpeedMPH,Gust SpeedMPH,PrecipitationIn,Events,Conditions,WindDirDegrees,DateUTC
12:35 AM,21.2,15.8,80,29.89,10.0,Calm,Calm,-,N/A,,Mostly Cloudy,0,2013-03-18 06:35:00
12:55 AM,19.4,15.8,86,29.89,10.0,Calm,Calm,-,N/A,,Mostly Cloudy,0,2013-03-18 06:55:00
1:15 AM,17.6,12.2,79,29.89,10.0,NE,4.6,-,N/A,,Mostly Cloudy,50,2013-03-18 07:15:00
1:35 AM,15.8,12.2,86,29.89,10.0,East,3.5,-,N/A,,Partly Cloudy,80,2013-03-18 07:35:00
1:55 AM,14.0,10.4,86,29.90,10.0,NE,3.5,-,N/A,,Partly Cloudy,40,2013-03-18 07:55:00
2:15 AM,17.6,12.2,79,29.90,10.0,North,4.6,-,N/A,,Partly Cloudy,360,2013-03-18 08:15:00
2:35 AM,15.8,12.2,86,29.90,10.0,NNW,3.5,-,N/A,,Clear,340,2013-03-18 08:35:00
2:55 AM,12.2,10.4,92,29.91,10.0,East,4.6,-,N/A,,Scattered Clouds,90,2013-03-18 08:55:00
3:35 AM,10.4,8.6,92,29.91,10.0,NNE,3.5,-,N/A,,Mostly Cloudy,20,2013-03-18 09:35:00
3:55 AM,12.2,10.4,92,29.90,10.0,Calm,Calm,-,N/A,,Partly Cloudy,0,2013-03-18 09:55:00
4:15 AM,10.4,10.4,100,29.91,10.0,ENE,3.5,-,N/A,,Clear,60,2013-03-18 10:15:00
4:35 AM,12.2,10.4,92,29.90,10.0,Calm,Calm,-,N/A,,Mostly Cloudy,0,2013-03-18 10:35:00
4:55 AM,10.4,10.4,100,29.90,10.0,North,4.6,-,N/A,,Mostly Cloudy,350,2013-03-18 10:55:00
5:35 AM,10.4,10.4,100,29.90,10.0,ENE,5.8,-,N/A,,Overcast,60,2013-03-18 11:35:00
5:55 AM,14.0,10.4,86,29.90,10.0,East,4.6,-,N/A,,Overcast,90,2013-03-18 11:55:00
6:15 AM,12.2,10.4,92,29.90,10.0,Calm,Calm,-,N/A,,Overcast,0,2013-03-18 12:15:00
6:36 AM,12.2,8.6,85,29.90,10.0,NW,5.8,-,N/A,,Overcast,310,2013-03-18 12:36:00
6:53 AM,10.4,8.6,92,29.90,10.0,Calm,Calm,-,N/A,,Mostly Cloudy,0,2013-03-18 12:53:00
6:55 AM,10.4,8.6,92,29.90,10.0,Calm,Calm,-,N/A,,Overcast,0,2013-03-18 12:55:00
7:53 AM,15.8,10.4,79,29.92,10.0,South,5.8,-,N/A,,Mostly Cloudy,180,2013-03-18 13:53:00
8:55 AM,19.4,10.4,68,29.93,10.0,South,9.2,-,N/A,,Mostly Cloudy,190,2013-03-18 14:55:00
9:51 AM,21.2,12.2,68,29.94,10.0,South,16.1,-,N/A,,Mostly Cloudy,170,2013-03-18 15:51:00
10:51 AM,24.8,10.4,54,29.94,10.0,SSW,11.5,20.7,N/A,,Mostly Cloudy,210,2013-03-18 16:51:00
11:52 AM,24.8,15.8,69,29.93,8.0,SW,10.4,21.9,N/A,,Overcast,230,2013-03-18 17:52:00
12:53 PM,26.6,14.0,59,29.91,7.0,SSW,13.8,21.9,N/A,,Overcast,210,2013-03-18 18:53:00
1:53 PM,26.6,17.6,69,29.91,7.0,SSW,13.8,25.3,N/A,Snow,Light Snow,200,2013-03-18 19:53:00
2:19 PM,24.8,21.2,86,29.91,2.0,South,16.1,-,N/A,Snow,Light Snow,180,2013-03-18 20:19:00
2:59 PM,24.8,21.2,86,29.89,2.0,SSW,11.5,-,N/A,Snow,Light Snow,200,2013-03-18 20:59:00
3:30 PM,26.6,23.0,86,29.88,2.0,South,18.4,-,N/A,Snow,Light Snow,190,2013-03-18 21:30:00
3:54 PM,26.6,24.8,93,29.87,3.0,South,18.4,-,N/A,Snow,Light Snow,170,2013-03-18 21:54:00
4:13 PM,24.8,23.0,93,29.88,1.5,South,17.3,-,N/A,Snow,Light Snow,190,2013-03-18 22:13:00
4:51 PM,24.8,24.8,100,29.88,0.8,South,15.0,-,N/A,Snow,Light Snow,180,2013-03-18 22:51:00
5:58 PM,26.6,23.0,86,29.87,2.0,South,13.8,-,N/A,Snow,Light Snow,170,2013-03-18 23:58:00
7:05 PM,28.4,19.4,69,29.85,5.0,South,13.8,-,N/A,Snow,Light Snow,180,2013-03-19 01:05:00
7:54 PM,30.2,17.6,60,29.86,10.0,SSW,17.3,-,N/A,,Overcast,200,2013-03-19 01:54:00
8:51 PM,30.2,15.8,55,29.88,10.0,SSW,19.6,26.5,N/A,,Overcast,200,2013-03-19 02:51:00
8:55 PM,30.2,15.8,55,29.88,10.0,SSW,19.6,26.5,N/A,,Overcast,200,2013-03-19 02:55:00
9:15 PM,30.2,15.8,55,29.89,10.0,South,17.3,28.8,N/A,,Overcast,190,2013-03-19 03:15:00
9:35 PM,30.2,15.8,55,29.89,8.0,SSW,15.0,28.8,N/A,,Overcast,210,2013-03-19 03:35:00
9:55 PM,28.4,15.8,59,29.90,10.0,SSW,15.0,31.1,N/A,,Mostly Cloudy,210,2013-03-19 03:55:00
10:15 PM,28.4,14.0,55,29.90,10.0,SSW,13.8,27.6,N/A,,Overcast,200,2013-03-19 04:15:00
10:35 PM,28.4,14.0,55,29.92,10.0,SSW,13.8,24.2,N/A,,Mostly Cloudy,210,2013-03-19 04:35:00
10:55 PM,28.4,12.2,51,29.92,10.0,SSW,13.8,21.9,N/A,,Mostly Cloudy,210,2013-03-19 04:55:00
11:15 PM,28.4,12.2,51,29.94,10.0,WSW,9.2,-,N/A,,Mostly Cloudy,250,2013-03-19 05:15:00
11:35 PM,28.4,12.2,51,29.95,10.0,SW,11.5,-,N/A,,Overcast,230,2013-03-19 05:35:00